カタログに戻る

SL-8 DEB

運用中LEO
NORAD 21403·DEBRIS·🇷🇺 Russia

打ち上げ Feb 12, 1991 から Plesetsk Cosmodrome

Loading…

次のパス (今後24時間)

TLE

最新Source: Space-Track

元期: Sep 14, 2026, 05:45 UTC

1 21403U 91009BS  26257.23978796  .00000121  00000-0  11099-2 0  9998
2 21403  73.9399 348.7080 0134711 253.9000 132.5491 12.31865049595517

AllMySatでSL-8 DEBをリアルタイム追跡

Download on the App Store